Regional Weather Roundup
Issued by NWS Spokane, WA

Home | Current Version | Previous Version | Text Only | Print | Product List | Glossary On
Versions: 1 2 3 4 5 6 7 8 9 10 11 12 13 14 15 16 17 18 19 20 21 22 23 24 25 26 27 28 29 30 31 32 33 34 35 36 37 38 39 40 41 42 43 44 45 46 47 48 49 50
647
NZUS01 KOTX 110210
RWROTX
EASTERN WASHINGTON/NORTHERN IDAHO ROUNDUP
NATIONAL WEATHER SERVICE, SPOKANE WA
600 PM PST WED FEB 10 2016

Note: "fair" indicated few or no clouds below 12,000 feet with no
significant weather and/or obstructions to visibility.

...NORTHEAST WASHINGTON AND NORTHERN IDAHO PANHANDLE...

CITY           SKY/WX    TMP DP  RH WIND       PRES   REMARKS
SPOKANE INTL   MOCLDY    38  33  82 CALM      30.25R
SPOKANE DOWNTO CLOUDY    41  36  82 CALM      30.27R
COEUR D ALENE  CLOUDY    37  34  87 CALM      30.22S
DEER PARK      MOCLDY    35  32  88 CALM      30.27R
SANDPOINT      CLOUDY    34  34 100 CALM      30.24F
BONNERS FERRY  CLOUDY    32  32 100 NW5       30.23R WCI  27

...SOUTHEAST WASHINGTON AND SOUTHERN IDAHO PANHANDLE...

CITY           SKY/WX    TMP DP  RH WIND       PRES   REMARKS
WALLA WALLA    CLOUDY    47  41  80 SE8       30.29R
PULLMAN/MOSCOW CLOUDY    46  36  68 SE6       30.30R
LEWISTON       CLOUDY    50  34  54 SE5       30.29R
LOWELL           N/A     43  38  82 CALM      30.32S

...COLUMBIA BASIN...

CITY           SKY/WX    TMP DP  RH WIND       PRES   REMARKS
EPHRATA        CLOUDY    38  34  85 SE5       30.27R
MOSES LAKE     CLOUDY    42  35  76 SW3       30.29R
TRI CITIES     CLOUDY    45  38  76 SE5       30.30S
HERMISTON      CLOUDY    42  37  82 NE3       30.29S
PENDLETON      CLOUDY    47  39  74 SE5       30.29R

...EAST SLOPES CASCADES...

CITY           SKY/WX    TMP DP  RH WIND       PRES   REMARKS
THE DALLES     CLOUDY    48  39  71 CALM      30.30S
YAKIMA         MOCLDY    40  32  73 W5        30.28R
ELLENSBURG     PTCLDY    31  27  85 NW6       30.26S WCI  25
WENATCHEE      CLOUDY    40  32  73 E3        30.26S
OMAK           PTCLDY    36  31  82 SE8       30.28R

...SOUTHERN BRITISH COLUMBIA...

CITY           SKY/WX    TMP DP  RH WIND       PRES   REMARKS
PENTICTON      PTCLDY    41  34  75 S17       30.24R
CRANBROOK      MOCLDY    32  27  80 CALM      30.13F

...WESTERN MONTANA...

CITY           SKY/WX    TMP DP  RH WIND       PRES   REMARKS
MISSOULA       CLOUDY    36  30  79 E6        30.25R

...NEIGHBORING CITIES...

CITY           SKY/WX    TMP DP  RH WIND       PRES   REMARKS
SEATTLE        MOCLDY    53  48  83 SW7       30.29R
CALGARY        FOG       32  30  93 S8        29.97F VSB 3/4 WCI  25



USA.gov is the U.S. government's official web portal to all federal, state and local government web resources and services.